User: anonymous   Login
Location: Bletchingley
(51.2333°N, 0.1000°W)
Time: 20:44:54
(UTC+00:00)
Language:

Cosmos 1674 - Orbit

View from above orbital plane
View from above orbital plane
View from above satellite
View from above satellite

Ground track
Ground track

The orbit data is extracted from the following two-line orbital elements,

1 15944U 85069A   21134.86946818  .00001016  00000-0  45023-4 0  9998
2 15944  82.5079 252.9502 0016366 191.7997 168.2857 15.20347076954523
Epoch (UTC): 14 May 2021 20:52:02
Eccentricity: 0.0016366
inclination: 82.5079°
perigee height: 493 km
apogee height: 516 km
right ascension of ascending node: 252.9502°
argument of perigee: 191.7997°
revolutions per day: 15.20347076
mean anomaly at epoch: 168.2857°
orbit number at epoch: 95452

The dashed part of the orbit path shows where the satellite is in the earth's shadow,  

DLR